Wind_Speed
9 11 13 13 14 15 16 17 18 21 23 26 29 32 35 37 39 41 43 44 45 46 45 44 44 43 44 44 46 47 49 50 51 52 52 52 52 52 51 50 50 50 51 52
12 13 14 15 15 16 18 19 20 22 25 28 30 34 36 39 41 43 44 45 46 46 45 44 43 43 44 45 47 49 51 52 52 52 52 52 51 51 50 49 48 48 48 49
14 15 15 15 16 17 19 21 22 24 27 29 32 35 38 40 43 45 46 47 48 47 45 43 43 44 45 47 49 51 52 52 52 51 51 51 49 48 46 44 44 44 44 45
16 16 16 16 17 18 19 21 23 25 28 30 33 36 39 41 44 46 47 48 48 47 45 44 44 45 47 49 51 52 52 52 51 50 49 48 46 43 41 39 39 39 40 40
16 17 18 17 18 19 20 20 23 26 28 31 34 37 41 43 45 48 49 49 49 48 46 44 45 46 47 49 51 52 52 52 50 48 46 44 42 38 36 35 34 35 37 38
17 18 19 20 20 21 22 23 25 27 30 32 35 37 40 44 46 48 49 50 49 48 46 45 45 46 48 50 51 52 51 50 48 47 44 41 38 34 31 30 29 30 31 34
18 20 21 21 22 23 24 26 27 29 31 34 37 40 42 45 47 49 50 50 49 47 46 45 45 46 48 50 51 51 51 49 47 44 40 37 34 30 26 24 23 24 26 29
19 20 22 22 22 23 25 26 28 30 32 35 38 41 44 46 48 50 50 49 48 47 45 45 45 46 48 49 51 51 50 47 44 41 37 34 30 26 22 19 17 17 19 22
20 21 22 22 23 24 25 27 29 30 33 36 39 42 45 47 49 50 50 49 48 46 45 45 45 46 47 49 49 49 48 45 42 38 35 31 28 23 19 16 13 11 13 16
20 21 22 23 23 24 26 27 29 31 34 37 40 44 46 48 49 50 49 48 48 46 44 44 44 46 47 48 47 48 47 44 40 37 34 30 27 23 19 15 10 8 9 12
21 21 22 22 23 25 26 28 30 33 36 39 42 45 48 50 50 50 49 48 47 45 43 43 43 45 46 46 45 46 45 42 39 36 33 29 26 23 19 15 10 5 5 9
21 22 22 23 24 26 27 29 32 34 37 40 44 47 49 50 49 49 48 47 46 45 43 41 42 43 44 44 44 44 42 40 38 35 33 29 25 22 19 15 10 4 1 6
21 21 22 23 25 27 29 31 33 36 39 42 45 47 48 49 48 48 47 46 45 44 42 40 40 41 42 42 42 42 40 38 37 35 32 29 25 22 19 16 12 8 5 5
21 22 23 25 27 29 31 33 36 38 41 43 45 47 47 47 47 47 46 45 44 43 41 39 38 39 40 40 40 40 38 36 35 34 31 29 25 22 19 17 14 11 9 8
24 25 26 28 29 32 34 36 38 40 42 44 45 45 44 45 46 47 46 44 43 42 40 38 36 37 37 38 38 38 36 34 33 32 30 27 25 22 19 17 14 12 11 10
27 28 29 31 33 35 36 38 40 41 43 43 44 43 42 44 45 46 45 44 42 40 39 37 35 34 34 35 36 36 35 33 32 30 28 26 23 22 19 17 15 13 12 11
30 31 33 34 35 37 38 39 40 41 42 42 41 41 41 42 44 44 44 43 42 40 38 36 33 32 32 33 33 33 33 32 31 29 27 25 22 20 19 17 16 14 12 11
34 34 36 37 38 38 39 39 39 40 40 40 39 40 40 41 42 42 42 41 41 39 37 35 32 30 29 29 30 31 31 30 30 28 26 24 22 20 18 17 15 14 13 12
36 37 38 38 38 38 38 38 39 39 40 39 39 39 39 40 41 41 41 40 39 37 35 33 30 28 27 27 27 28 28 28 28 27 25 23 22 21 20 18 17 15 14 13
39 39 39 39 38 37 37 38 38 38 39 39 38 38 38 38 39 39 40 39 38 36 34 31 29 26 25 24 24 24 25 26 26 25 24 22 22 21 21 19 18 18 17 17
39 39 38 38 37 37 37 37 37 38 38 38 38 38 38 38 38 37 38 37 37 35 32 30 27 24 22 21 21 21 22 22 23 23 22 21 21 21 20 20 20 20 20 20
39 38 38 38 38 38 38 37 37 38 38 38 38 38 37 36 36 36 36 36 35 33 31 28 26 23 20 19 18 18 18 19 20 20 20 19 19 20 20 20 20 20 21 21
41 40 39 39 39 38 38 38 38 37 37 38 38 37 36 35 35 34 34 34 33 32 29 27 24 22 18 16 15 15 15 15 16 17 18 18 18 19 19 19 20 20 21 21
45 44 43 41 40 39 38 40 39 39 38 38 37 36 35 34 33 33 32 32 31 30 28 26 23 21 17 14 13 12 11 11 12 13 14 15 16 17 17 18 18 19 19 20
49 47 45 43 41 40 40 40 38 38 37 37 36 35 34 32 32 31 30 30 29 28 27 24 22 19 17 13 11 10 9 8 8 9 10 11 12 14 15 16 16 17 18 20
51 49 47 45 43 41 40 39 38 37 37 36 35 34 33 32 31 30 29 28 28 27 25 23 21 18 16 13 10 8 6 5 5 5 6 7 9 11 12 14 15 15 16 17
53 51 50 48 45 43 42 40 39 38 37 36 35 34 33 32 31 29 28 27 26 25 24 22 20 18 15 12 10 7 5 3 2 2 3 4 6 7 8 10 11 12 13 14
Wind_Direction
334 331 331 330 331 330 329 329 329 329 329 331 332 332 333 334 333 332 331 330 328 326 325 323 321 320 319 317 316 315 313 311 309 305 303 299 294 289 286 280 274 268 263 259
335 330 328 328 327 326 326 327 329 329 330 332 333 332 333 335 335 334 333 332 331 329 327 325 323 323 322 321 320 318 317 314 311 308 305 302 297 292 286 280 273 268 262 257
332 328 326 323 325 326 326 326 329 331 332 333 334 333 335 336 336 336 335 333 332 331 329 327 326 326 325 324 323 322 320 317 314 312 309 306 301 296 289 281 273 266 260 254
328 326 326 324 323 323 325 326 329 330 331 333 334 335 336 337 337 337 336 335 334 333 331 330 329 329 328 328 327 326 324 322 319 316 313 310 305 299 292 283 275 266 257 251
328 326 323 323 325 325 327 328 328 329 332 334 336 337 337 338 339 338 338 337 336 335 334 333 333 332 332 331 331 330 328 326 323 320 317 315 310 304 295 286 276 266 255 248
325 323 321 324 326 327 328 328 331 332 335 336 337 339 339 339 339 339 338 338 338 337 336 336 336 336 335 335 335 334 333 330 328 325 322 320 315 309 301 291 279 267 256 247
320 320 318 322 325 327 329 330 333 335 336 337 338 339 339 340 339 339 339 339 339 339 338 338 338 339 339 338 338 338 337 336 333 331 329 327 323 317 310 300 284 268 254 246
316 315 315 321 323 326 328 330 332 334 336 337 338 338 339 340 340 340 340 340 340 340 340 340 341 341 341 341 341 342 342 341 339 338 337 336 334 329 321 310 292 271 254 244
313 312 314 318 321 324 328 330 332 334 335 336 337 338 338 339 340 340 340 341 341 342 342 342 343 343 344 344 345 346 346 346 345 345 344 344 343 341 334 324 306 277 254 240
311 311 313 317 320 323 327 329 331 333 334 335 336 337 338 339 340 340 341 341 342 343 344 344 344 345 346 347 348 349 350 350 350 350 351 351 352 349 344 337 322 286 253 231
310 311 313 316 319 322 325 328 330 331 332 334 334 336 337 339 340 341 341 342 343 344 345 345 346 347 348 350 351 353 354 355 356 356 357 356 356 354 352 348 342 308 238 217
310 311 313 316 318 321 323 326 328 329 331 332 333 335 337 339 341 341 342 343 344 345 346 346 347 349 351 352 354 355 357 359 0 1 2 2 3 4 5 5 8 17 162 186
308 310 312 315 317 320 322 324 325 327 329 330 331 334 337 340 341 342 343 343 344 345 346 347 349 351 353 354 356 357 359 1 4 5 8 9 10 14 18 23 34 52 87 139
308 310 312 314 316 318 320 322 324 326 327 329 331 334 337 340 342 343 343 343 344 345 347 348 350 352 354 356 358 360 2 4 6 8 12 15 19 23 29 36 45 59 78 107
308 310 311 313 315 316 318 320 322 324 326 328 330 333 337 340 343 344 344 344 344 346 347 348 350 353 355 358 360 2 4 7 8 11 14 18 24 29 35 43 51 62 76 93
307 308 310 311 313 314 316 318 320 323 325 326 328 332 335 339 342 343 344 344 344 346 347 348 350 353 356 359 2 4 7 10 12 15 19 22 26 32 38 45 54 63 77 93
304 305 306 308 310 312 314 316 318 321 323 324 327 330 333 337 340 342 343 344 344 345 347 348 350 353 357 360 3 6 9 13 15 18 22 26 31 37 43 50 56 63 73 88
301 301 303 305 307 309 311 314 316 318 320 322 324 327 330 335 339 341 343 344 344 345 346 348 350 352 356 359 3 6 10 15 18 21 25 29 34 39 44 50 56 62 70 81
295 297 299 301 303 305 308 311 313 315 318 320 322 325 328 332 337 340 342 343 343 344 345 346 348 350 354 359 3 6 10 16 19 23 27 33 38 42 47 53 58 62 72 84
290 292 294 296 299 302 305 307 310 312 315 317 321 324 326 330 335 338 340 342 342 343 343 344 346 348 352 358 2 6 10 16 21 25 32 38 43 46 50 55 62 67 77 86
288 289 292 294 295 298 300 303 305 308 311 314 317 321 324 328 332 335 339 340 341 341 341 342 344 346 349 355 0 5 11 17 24 29 36 43 46 50 54 59 66 73 81 87
287 288 289 290 291 294 295 299 303 305 307 311 314 318 322 325 329 332 336 338 338 339 339 340 341 343 344 351 358 4 11 19 26 31 37 43 49 54 58 64 71 78 84 89
285 285 285 287 289 291 292 294 299 301 303 307 311 315 319 322 325 329 332 335 336 336 337 337 338 340 340 345 353 1 8 18 27 33 39 46 52 58 62 68 75 82 87 93
281 283 283 284 285 286 287 290 293 296 299 303 307 311 315 319 322 325 328 331 333 333 334 334 334 336 337 337 345 354 3 13 25 35 42 50 57 62 68 74 81 88 92 97
280 281 282 281 281 282 283 286 289 292 295 299 303 307 312 315 318 321 324 327 330 331 331 331 331 332 333 330 333 345 355 7 21 35 46 53 61 68 74 81 88 94 99 103
278 279 279 278 279 280 281 282 284 287 291 294 297 301 306 310 313 316 320 323 325 327 328 328 327 327 328 325 321 328 340 354 11 34 52 62 69 77 84 90 96 100 105 109
276 276 276 277 276 277 278 279 280 282 284 287 290 295 300 304 308 311 315 318 320 322 324 324 324 322 322 319 311 306 311 325 347 27 66 79 85 91 97 101 106 109 112 115
Height
5848 5846 5844 5842 5840 5837 5834 5831 5828 5824 5819 5814 5808 5802 5796 5790 5783 5775 5766 5757 5748 5739 5730 5722 5714 5705 5697 5689 5680 5671 5662 5653 5644 5636 5628 5620 5613 5606 5602 5598 5595 5594 5594 5595
5846 5844 5841 5839 5836 5833 5830 5827 5823 5819 5814 5809 5803 5797 5790 5784 5776 5767 5759 5749 5740 5730 5721 5712 5704 5695 5686 5677 5668 5658 5649 5639 5628 5619 5610 5601 5593 5587 5581 5577 5575 5574 5575 5576
5844 5841 5839 5836 5833 5830 5826 5822 5819 5814 5810 5804 5798 5791 5784 5777 5769 5760 5751 5741 5731 5721 5712 5703 5694 5685 5676 5666 5656 5646 5635 5624 5613 5603 5593 5583 5575 5567 5561 5557 5555 5555 5556 5558
5841 5839 5836 5835 5830 5827 5823 5818 5814 5809 5804 5799 5793 5785 5778 5770 5762 5753 5743 5733 5723 5713 5703 5694 5685 5675 5665 5655 5644 5633 5621 5609 5598 5587 5577 5567 5558 5550 5545 5540 5538 5538 5539 5542
5838 5836 5833 5830 5826 5822 5819 5815 5810 5805 5800 5794 5788 5780 5772 5764 5755 5745 5735 5725 5715 5704 5695 5685 5676 5666 5656 5645 5633 5621 5609 5596 5584 5573 5562 5553 5543 5536 5530 5525 5523 5523 5524 5527
5834 5832 5829 5826 5822 5818 5815 5810 5806 5800 5794 5788 5782 5776 5768 5758 5749 5740 5729 5719 5708 5697 5687 5677 5668 5657 5646 5635 5623 5610 5597 5585 5572 5561 5550 5540 5531 5523 5517 5513 5510 5510 5511 5514
5831 5827 5824 5821 5817 5814 5810 5806 5800 5794 5789 5782 5776 5769 5762 5753 5743 5733 5723 5712 5701 5690 5680 5670 5660 5649 5638 5627 5614 5601 5588 5575 5563 5551 5540 5530 5521 5514 5508 5503 5500 5500 5501 5504
5827 5824 5822 5816 5812 5809 5806 5799 5794 5789 5783 5777 5770 5763 5755 5746 5737 5727 5716 5706 5695 5684 5673 5663 5653 5642 5631 5619 5607 5593 5580 5568 5555 5544 5533 5523 5515 5507 5501 5497 5494 5493 5494 5496
5823 5821 5816 5812 5808 5804 5799 5795 5790 5784 5779 5772 5765 5758 5750 5741 5731 5721 5710 5700 5689 5678 5667 5657 5647 5636 5625 5613 5600 5588 5575 5562 5550 5539 5529 5519 5511 5504 5498 5493 5490 5489 5490 5492
5817 5814 5810 5807 5803 5799 5794 5790 5785 5779 5773 5767 5760 5752 5744 5735 5725 5715 5705 5694 5683 5673 5662 5652 5642 5631 5620 5608 5596 5584 5571 5559 5547 5537 5527 5517 5510 5503 5497 5492 5489 5487 5487 5489
5812 5809 5805 5802 5798 5794 5789 5785 5779 5774 5768 5762 5754 5746 5738 5729 5719 5709 5699 5688 5678 5668 5658 5648 5638 5627 5616 5605 5593 5581 5569 5557 5546 5536 5526 5517 5510 5503 5497 5492 5488 5486 5486 5487
5807 5803 5800 5797 5793 5789 5784 5779 5774 5768 5762 5756 5748 5740 5732 5723 5713 5704 5694 5684 5674 5664 5654 5644 5635 5624 5614 5603 5592 5580 5569 5558 5547 5537 5527 5519 5511 5505 5499 5493 5490 5487 5487 5488
5801 5798 5795 5791 5787 5783 5778 5773 5768 5763 5757 5750 5742 5735 5726 5718 5708 5699 5689 5680 5670 5660 5650 5641 5632 5622 5612 5602 5591 5580 5569 5559 5549 5539 5530 5521 5514 5508 5502 5497 5493 5491 5490 5491
5795 5792 5789 5785 5781 5777 5772 5767 5762 5756 5750 5744 5736 5729 5721 5712 5703 5694 5685 5676 5666 5657 5648 5638 5630 5621 5611 5601 5591 5581 5571 5561 5551 5542 5533 5525 5518 5512 5507 5502 5499 5497 5496 5496
5788 5785 5782 5779 5775 5770 5766 5761 5756 5750 5744 5737 5730 5723 5716 5708 5699 5690 5681 5672 5663 5654 5645 5636 5628 5620 5611 5602 5592 5583 5573 5563 5554 5546 5538 5530 5524 5518 5513 5509 5506 5503 5502 5502
5781 5778 5775 5771 5768 5763 5759 5754 5749 5743 5737 5731 5724 5718 5711 5703 5695 5686 5677 5669 5660 5652 5643 5635 5627 5619 5611 5602 5594 5585 5576 5566 5558 5550 5542 5535 5529 5524 5519 5515 5512 5510 5509 5508
5774 5771 5767 5764 5760 5756 5752 5747 5742 5736 5730 5724 5718 5712 5706 5699 5691 5683 5674 5665 5657 5649 5641 5633 5626 5618 5611 5603 5595 5587 5579 5570 5562 5554 5547 5540 5535 5529 5525 5522 5519 5517 5515 5513
5765 5762 5759 5756 5752 5748 5744 5739 5734 5729 5723 5718 5712 5706 5700 5694 5687 5679 5671 5663 5654 5646 5639 5632 5625 5618 5611 5604 5597 5590 5582 5574 5566 5559 5552 5546 5540 5535 5531 5528 5525 5522 5520 5519
5756 5753 5750 5747 5743 5739 5736 5731 5727 5722 5716 5711 5706 5700 5695 5689 5682 5675 5667 5660 5652 5645 5637 5630 5624 5617 5611 5605 5599 5592 5585 5578 5571 5564 5558 5552 5546 5542 5537 5534 5530 5528 5525 5524
5746 5744 5741 5738 5734 5731 5727 5723 5719 5714 5709 5704 5699 5694 5689 5683 5677 5670 5663 5656 5649 5642 5636 5629 5623 5617 5611 5606 5600 5595 5589 5582 5576 5570 5564 5558 5553 5548 5544 5540 5537 5534 5532 5531
5736 5733 5730 5728 5725 5722 5718 5715 5711 5706 5702 5697 5693 5688 5683 5677 5672 5666 5659 5653 5646 5639 5633 5627 5622 5616 5611 5606 5602 5597 5591 5586 5580 5575 5570 5564 5560 5555 5551 5548 5545 5542 5540 5539
5724 5722 5719 5717 5715 5712 5708 5705 5702 5698 5694 5690 5685 5681 5676 5671 5666 5660 5655 5649 5643 5637 5631 5625 5620 5615 5611 5607 5602 5598 5594 5589 5585 5580 5575 5570 5566 5562 5558 5555 5553 5551 5549 5548
5711 5710 5707 5705 5703 5701 5698 5695 5692 5689 5685 5682 5678 5674 5669 5665 5660 5655 5650 5645 5639 5633 5628 5623 5618 5614 5610 5606 5603 5599 5595 5592 5588 5584 5580 5576 5572 5569 5566 5563 5561 5559 5558 5557
5697 5696 5695 5693 5691 5689 5687 5684 5682 5679 5676 5673 5669 5666 5662 5658 5654 5649 5645 5640 5635 5630 5625 5620 5616 5612 5608 5605 5602 5599 5597 5594 5591 5588 5584 5581 5578 5575 5573 5570 5568 5567 5566 5565
5682 5681 5680 5679 5678 5677 5675 5672 5671 5669 5666 5663 5661 5658 5654 5651 5647 5643 5639 5635 5630 5626 5621 5617 5613 5610 5606 5603 5601 5599 5597 5595 5592 5590 5588 5586 5583 5581 5579 5577 5575 5575 5574 5574
5665 5665 5664 5664 5663 5663 5662 5660 5659 5657 5655 5653 5651 5649 5646 5644 5640 5637 5633 5629 5625 5621 5617 5613 5610 5607 5604 5601 5599 5598 5596 5595 5593 5592 5590 5588 5587 5585 5584 5583 5582 5581 5581 5581
5648 5648 5648 5648 5648 5648 5647 5647 5646 5645 5644 5643 5642 5640 5638 5635 5633 5630 5627 5623 5620 5616 5613 5609 5606 5603 5600 5598 5597 5596 5595 5594 5593 5592 5591 5590 5589 5588 5588 5587 5586 5586 5586 5586